CAPE
2 443 1064 1115 1667 1341 1234 1279 1084 837 722 731 735 819 965 1131 1132 1444 1384 996 978 1061 706 510 514 592 681 711 578 511 652 863 1462 1395 914 1128 1540 1124 902 1318 1363 1348 1383
0 236 978 1162 1399 1213 1565 1316 1298 1101 829 659 747 801 788 1001 1011 1233 1033 1044 1031 698 640 645 687 739 662 551 498 409 306 404 617 1339 1346 928 1161 1099 1356 1067 964 1299 1695
0 40 414 1052 1551 1169 1794 1002 1113 1004 1014 781 727 724 755 960 1092 1199 1002 774 651 624 533 454 496 644 499 383 349 414 654 325 169 519 1282 890 598 743 796 892 660 898 1279
0 0 84 1051 1455 1397 1825 1161 878 826 839 853 984 1118 1168 1198 1200 1047 648 640 461 604 508 465 599 799 614 329 150 79 76 116 187 270 239 463 727 335 474 400 833 1096 1214
0 0 295 1234 1563 1466 1751 1263 788 527 523 995 1407 1532 1379 1335 1009 672 648 486 580 442 429 552 726 866 828 666 511 403 303 160 0 0 226 637 468 270 260 469 361 714 566
0 22 1005 1502 1486 1559 1880 1407 981 544 540 778 1415 1659 1440 1094 743 608 519 402 350 565 666 755 966 985 926 896 829 798 779 722 526 259 134 221 621 303 361 345 1054 843 554
22 758 1035 1733 1824 1901 2019 1729 1337 1054 693 980 1734 1589 1258 836 574 451 318 360 616 626 661 825 1083 1155 1270 1357 1261 1169 1075 1048 868 735 628 466 339 264 434 248 306 544 1090
966 425 1140 1892 1924 2033 2013 1833 1523 1493 1678 1816 1657 1386 1036 713 435 371 270 444 454 568 842 788 1049 1146 823 779 936 978 1177 1126 1017 999 967 546 381 502 530 194 183 244 1169
1016 598 890 1373 1810 1855 1805 1725 1621 1621 1603 1559 1420 1170 798 443 206 129 127 186 314 520 325 332 701 828 500 708 655 724 849 997 741 1017 931 659 614 568 367 137 139 215 499
689 675 691 1042 1172 1226 1431 1600 1497 1438 1435 1283 1045 780 403 124 135 308 354 261 456 647 316 244 597 471 875 856 536 649 1043 1124 1017 803 1250 724 329 214 206 193 364 394 252
507 544 590 763 873 833 876 1238 1276 1217 1095 908 707 436 220 148 485 766 1032 1027 578 296 21 150 897 1155 148 561 1 302 1111 1164 719 728 1076 931 526 356 252 225 256 490 515
481 470 585 718 724 725 673 962 753 711 671 574 338 218 503 552 625 652 666 567 141 7 0 172 616 907 196 611 240 604 969 1001 581 212 845 1224 777 631 367 250 197 375 496
404 301 423 523 613 558 762 1148 731 624 400 335 134 514 806 931 424 330 446 147 121 319 270 1216 1493 1439 922 1079 1000 1076 1261 1242 917 517 888 1043 717 492 397 354 443 340 463
327 200 266 304 469 333 575 825 147 165 92 75 131 309 750 731 331 278 199 199 388 361 635 1358 1196 1891 1657 561 18 388 1468 1103 692 118 1011 628 530 600 373 502 816 734 474
228 165 162 411 381 368 469 175 62 41 32 15 399 719 846 721 461 284 279 360 257 283 320 1347 934 908 1392 956 621 390 1042 1127 149 5 339 1053 782 745 616 375 619 1311 1085
175 141 199 573 381 765 117 119 44 29 19 5 103 619 648 453 315 158 571 453 352 358 305 494 345 410 450 892 1292 960 1087 1251 782 322 627 1307 1008 859 806 534 402 590 1149
155 112 155 478 557 656 311 177 23 12 0 47 83 537 518 464 198 163 749 646 510 560 305 229 406 755 1066 829 503 1341 1224 1188 1124 1172 1510 1333 1173 1060 1040 1003 559 439 617
48 97 71 114 551 453 314 125 101 30 21 32 121 197 262 357 291 825 914 873 575 868 442 414 567 318 248 169 227 391 693 819 199 782 990 960 1418 1632 1519 1206 819 467 435
42 129 197 38 242 316 225 303 129 27 16 111 91 34 485 579 436 674 944 799 768 619 707 370 577 831 593 683 407 143 242 411 324 354 673 902 1061 1737 1795 1593 1156 654 670
74 147 124 54 157 292 289 176 231 97 178 122 93 31 596 521 617 1254 1038 816 709 614 693 1300 1291 984 737 609 927 1366 1226 1551 994 376 347 508 834 1454 1684 1675 1364 972 917
56 93 68 144 295 349 349 315 307 214 178 175 113 10 199 448 826 1021 1077 939 1025 676 519 807 941 1071 1364 1429 967 963 1096 993 412 0 0 660 1181 1378 1395 1638 1693 1476 1687
2 83 137 214 135 324 308 464 372 202 174 122 71 54 102 477 706 1123 1275 1109 953 937 1089 1320 1274 1411 1422 1390 1505 1357 1238 1088 521 240 136 611 0 205 641 1229 1197 1062 1177
2 105 145 170 724 599 617 554 650 438 168 124 86 90 364 369 725 1023 1196 1587 1235 1831 1189 1308 1773 1542 1463 1672 1767 1862 1441 1193 1366 1476 1272 1371 633 19 1003 1186 1271 1414 1193
64 131 326 375 1128 1081 791 989 603 482 518 414 329 318 380 599 778 992 1521 1496 1468 1430 1431 1727 1624 1672 1405 1410 1792 2011 2099 1719 1572 1261 1539 1611 1779 1521 1787 1843 15 7 126
0 130 387 957 1312 1493 1339 1635 1181 1341 726 960 544 641 510 1163 1140 1539 1684 1797 1948 2230 1951 1770 1278 944 1345 2172 2037 1876 2334 2370 2252 1625 1128 1572 1594 1689 1877 2591 20 0 0
0 60 402 1269 1202 1891 2032 1389 2238 1356 1127 1176 997 1155 1420 1036 1680 1550 1560 2016 2305 2369 2212 2109 1991 2103 2291 1988 2512 2783 2564 2404 2395 1884 1556 1583 1947 1601 1292 1591 1581 578 854
CIN
-18 -61 -3 0 0 0 0 0 -6 -33 -52 -62 -59 -47 -43 -38 -37 -19 -26 -51 -52 -41 -53 -59 -57 -52 -43 -36 -41 -39 -29 -17 0 -1 -23 -20 -9 -20 -24 -3 -3 -1 -8
0 -112 -6 -2 0 0 0 -1 -4 -23 -46 -66 -51 -45 -52 -36 -41 -31 -43 -38 -27 -44 -43 -35 -30 -27 -33 -41 -43 -46 -52 -48 -34 -2 -3 -20 -13 -18 -10 -9 -7 -7 0
0 -122 -84 -14 0 -5 0 -21 -19 -30 -29 -49 -52 -53 -50 -34 -25 -16 -31 -47 -55 -50 -52 -51 -41 -23 -45 -66 -68 -42 -22 -48 -70 -28 -1 -2 -16 -22 -30 -20 -18 -12 0
0 0 -169 -24 -3 -6 0 -17 -34 -44 -41 -41 -36 -30 -21 -13 -12 -22 -53 -56 -64 -41 -36 -30 -16 -5 -19 -52 -84 -114 -114 -96 -79 -61 -61 -8 -7 -30 -13 -54 -20 -8 -2
0 0 -122 -23 -6 -13 -5 -21 -43 -67 -65 -31 -12 -6 -7 -7 -27 -46 -47 -61 -50 -64 -57 -31 -9 0 -1 -15 -35 -57 -69 -96 0 0 -52 -4 -23 -66 -24 -35 -48 -21 -15
0 -113 -71 -20 -16 -14 -3 -18 -36 -61 -57 -40 -7 0 -3 -21 -43 -54 -59 -77 -94 -50 -47 -40 -13 -13 -9 -13 -21 -19 -24 -37 -58 -55 -44 -45 -5 -30 -35 -41 -15 -7 -19
-9 -87 -72 -19 -10 -9 -4 -13 -28 -29 -48 -22 0 -1 -7 -34 -54 -63 -93 -91 -67 -58 -64 -53 -20 -17 -11 0 0 0 -6 -18 -40 -28 -6 -10 -53 -56 -38 -55 -48 -28 -5
-60 -106 -64 -9 -4 -1 -2 -9 -16 -8 -2 0 -1 -8 -18 -39 -68 -79 -103 -80 -81 -79 -31 -45 -12 -1 -29 -27 -12 -9 -2 -13 -21 -12 -12 -11 -33 -52 -41 -54 -70 -62 -7
-48 -94 -67 -23 -4 -4 -5 -10 -9 -7 -5 -3 -7 -17 -39 -75 -104 -128 -143 -110 -105 -75 -115 -123 -62 -36 -75 -40 -27 -25 -29 -15 -47 -32 -1 -21 -57 -56 -48 -54 -68 -60 -35
-46 -97 -83 -44 -33 -27 -18 -12 -16 -16 -11 -16 -26 -45 -86 -144 -140 -113 -103 -112 -78 -60 -114 -134 -97 -69 -40 -37 -95 -66 -12 -31 -26 -46 -7 -24 -53 -44 -50 -62 -47 -43 -58
-52 -86 -70 -60 -52 -34 -38 -31 -27 -23 -30 -47 -63 -92 -127 -154 -67 -56 -45 -37 -57 -103 -88 -127 -47 -41 -85 -108 -10 -118 -36 -30 -27 -52 -18 -17 -33 -48 -66 -74 -67 -43 -38
-57 -78 -58 -48 -51 -42 -30 -48 -59 -59 -69 -86 -112 -131 -86 -56 -24 -25 -37 -58 -122 -73 0 -93 -52 -62 -153 -72 -236 -88 -52 -34 -47 -77 -34 -18 -29 -48 -81 -101 -102 -64 -50
-50 -82 -70 -52 -40 -30 -12 -40 -50 -54 -95 -115 -185 -58 -35 -7 -20 -23 -23 -97 -130 -70 -101 -44 -39 -32 -51 -49 -20 -57 -26 -19 -25 -67 -18 -37 -36 -64 -78 -92 -83 -87 -67
-58 -94 -80 -69 -61 -70 -35 -21 -181 -157 -197 -209 -162 -91 -19 -18 -64 -60 -58 -47 -32 -31 -44 -29 -21 -12 -10 -45 -7 -65 -8 -16 -63 -103 -34 -42 -55 -56 -83 -91 -68 -72 -79
-99 -103 -91 -69 -90 -77 -52 -124 -218 -250 -245 -251 -57 -31 -11 -23 -42 -62 -57 -49 -53 -26 -26 -6 -12 -13 -10 -24 -38 -63 -49 -27 -78 -13 -131 -56 -60 -56 -70 -104 -86 -46 -49
-134 -128 -83 -74 -105 -43 -161 -170 -232 -246 -238 -82 -110 -35 -53 -64 -83 -114 -23 -41 -53 -41 -28 -13 -17 -17 -19 -15 -31 -66 -32 -15 -59 -90 -110 -55 -74 -72 -74 -92 -116 -99 -52
-166 -171 -123 -86 -108 -92 -145 -179 -283 -285 0 -199 -159 -44 -68 -92 -160 -169 -34 -26 -34 -22 -38 -49 -36 -29 -12 -8 -16 -12 -17 -16 -40 -40 -30 -27 -38 -64 -74 -73 -101 -118 -111
-228 -193 -192 -194 -144 -169 -191 -242 -240 -266 -246 -228 -164 -129 -128 -119 -154 -64 -39 -23 -45 -10 -39 -51 -30 -41 -44 -62 -49 -21 -8 -8 -19 -8 -8 -10 -31 -26 -66 -73 -94 -121 -133
-246 -210 -178 -258 -214 -224 -243 -213 -274 -302 -318 -218 -208 -247 -116 -105 -140 -96 -46 -45 -34 -38 -36 -53 -37 -23 -44 -30 -60 -50 -49 -29 -30 -9 -3 -11 -18 -30 -37 -48 -92 -132 -121
-256 -226 -244 -316 -257 -239 -247 -299 -257 -301 -238 -268 -275 -307 -101 -138 -131 -43 -63 -60 -61 -75 -49 -20 -14 -24 -37 -52 -37 -10 -13 -12 -34 -141 -113 -20 -70 -18 -20 -30 -77 -120 -124
-318 -321 -356 -325 -251 -248 -271 -293 -278 -302 -293 -285 -312 -388 -232 -167 -119 -94 -81 -72 -50 -86 -97 -56 -48 -26 -7 -21 -25 -16 -26 -93 -152 0 -1 -60 -14 -21 -19 -24 -56 -72 -76
-219 -409 -383 -339 -407 -310 -327 -258 -276 -329 -321 -346 -379 -370 -328 -194 -154 -90 -76 -90 -89 -77 -59 -39 -48 -40 -37 -24 -5 -8 -16 -45 -128 -132 -181 -74 0 -119 -17 -29 -58 -68 -65
-269 -464 -470 -447 -229 -267 -246 -246 -203 -242 -367 -374 -386 -368 -241 -230 -184 -139 -111 -57 -86 -24 -68 -56 -23 -42 -38 -18 -12 -4 -7 -8 -13 -44 -54 -46 -75 -76 -39 -16 -43 -37 -63
-499 -502 -435 -408 -181 -204 -227 -180 -243 -264 -231 -241 -249 -233 -216 -217 -200 -180 -115 -101 -95 -81 -73 -36 -40 -30 -41 -50 -21 -8 -11 -15 -10 -42 -34 -21 -54 -68 -39 -10 -344 -23 -191
0 -531 -427 -273 -201 -187 -208 -160 -184 -164 -217 -168 -205 -181 -200 -138 -154 -113 -101 -85 -57 -24 -54 -77 -111 -126 -78 -14 -22 -17 -13 -7 -7 -8 -44 -46 -20 -22 -11 -42 -209 0 0
0 -481 -404 -267 -275 -205 -189 -226 -128 -202 -204 -164 -161 -123 -100 -129 -85 -88 -77 -58 -39 -37 -42 -49 -55 -48 -36 -44 -18 -7 -8 -8 -5 -3 -8 -8 -1 -24 -19 -15 -113 -201 -102
Wind_Speed
30 35 35 33 33 34 32 30 28 28 28 27 25 22 23 22 22 22 22 21 21 22 22 23 22 22 21 20 17 17 18 19 18 18 18 17 17 17 15 14 14 15 17
33 35 35 32 32 33 30 30 28 27 26 25 23 22 23 22 21 21 20 20 20 21 21 21 21 22 18 8 11 14 14 9 15 17 17 16 17 17 15 13 15 12 14
35 34 33 32 32 32 29 28 27 26 26 24 22 23 23 23 22 20 21 22 22 22 14 10 13 13 13 12 12 12 13 13 13 14 15 17 18 17 17 12 12 12 12
35 34 32 32 31 30 29 27 26 26 26 24 24 24 23 22 21 21 20 19 16 15 15 14 13 13 12 12 11 11 11 12 13 14 14 15 16 15 15 14 12 12 12
34 34 30 31 29 27 26 26 26 26 25 25 24 23 22 21 19 18 17 15 16 16 15 15 12 10 11 11 11 11 11 12 13 13 13 12 16 16 16 17 14 12 11
36 31 32 32 30 27 26 25 25 25 25 24 23 22 21 19 18 16 15 14 13 13 12 13 13 12 10 10 11 11 11 11 13 13 13 15 18 16 16 16 14 13 10
34 29 32 32 31 29 27 26 25 24 25 25 23 22 20 18 17 15 13 12 12 12 11 9 11 9 10 10 10 10 10 10 11 12 11 16 16 16 15 15 15 13 13
27 29 30 30 30 28 27 27 26 26 25 24 23 21 19 17 16 14 13 12 11 10 10 9 9 16 13 11 10 10 10 10 10 13 12 12 13 15 14 14 15 14 14
26 25 27 27 28 27 27 27 27 26 25 24 22 20 18 17 15 14 14 13 11 10 8 7 9 14 12 9 8 7 8 9 9 13 10 13 14 13 13 13 14 14 14
24 24 26 25 27 27 26 26 26 25 24 23 21 19 18 16 16 14 13 12 10 9 9 9 9 10 12 10 8 9 9 12 11 14 12 13 13 12 11 12 12 13 14
22 23 26 25 26 26 25 25 25 24 23 22 21 19 17 16 16 14 15 12 11 10 10 10 9 8 8 7 9 10 11 14 12 14 12 12 14 14 12 11 11 11 13
22 23 26 26 26 26 25 23 24 23 23 22 21 19 17 16 14 15 13 12 11 11 11 10 11 11 8 8 10 9 12 14 13 10 10 14 15 14 13 12 10 10 10
22 22 25 27 26 26 25 21 23 23 23 21 20 19 17 16 15 14 13 12 12 11 11 10 10 11 10 9 10 12 12 10 13 9 11 16 14 12 12 12 12 11 9
24 23 25 26 25 25 24 21 23 24 21 21 19 19 18 16 15 14 13 13 12 12 11 11 10 13 10 9 14 8 10 13 14 19 10 13 13 11 11 11 11 12 13
26 25 26 23 25 25 26 23 23 24 21 21 19 18 17 16 15 14 14 13 12 12 10 10 13 10 9 9 15 14 10 17 11 10 13 13 12 11 11 11 10 12 13
27 25 23 18 21 22 25 23 25 23 21 22 20 17 15 17 16 14 13 13 12 11 10 10 8 8 9 7 9 10 9 11 10 11 12 12 11 11 10 10 11 12 13
25 24 24 19 21 26 23 24 25 24 22 19 20 15 16 14 14 14 14 13 13 12 10 10 10 9 9 7 7 9 9 8 8 9 9 9 9 9 10 10 10 11 13
23 24 24 25 21 26 24 22 23 24 23 20 20 17 14 13 15 15 15 14 13 13 10 10 9 8 7 6 7 7 5 9 6 8 7 8 10 8 9 9 10 10 11
20 21 22 23 20 22 23 21 23 22 22 22 20 18 15 15 15 16 15 14 11 11 10 10 9 8 7 6 7 6 7 7 6 7 10 11 8 9 9 8 9 9 9
20 22 27 24 24 22 24 26 24 24 23 21 21 19 15 15 16 16 16 15 13 12 12 17 8 8 6 7 5 9 8 2 17 25 20 5 7 7 6 11 9 9 8
25 26 31 29 30 27 27 28 28 25 24 23 21 20 18 15 15 15 15 14 11 11 11 8 6 7 6 6 6 26 11 24 19 14 1 7 25 8 6 7 9 8 7
29 30 33 34 33 31 30 29 28 27 25 23 19 18 16 15 15 13 11 14 14 11 9 9 9 7 5 5 10 16 18 18 14 12 5 19 19 10 10 5 6 6 9
31 33 33 35 33 33 31 29 27 26 25 22 21 19 15 15 14 14 13 9 9 8 6 6 6 5 6 6 8 11 16 16 16 14 11 9 8 7 15 6 2 5 5
31 31 30 32 32 29 33 28 27 24 21 22 16 15 12 12 10 10 9 7 5 3 3 4 6 8 6 9 9 11 12 11 16 18 15 16 7 7 6 3 22 29 32
31 28 29 28 29 27 28 30 23 19 20 15 13 10 9 7 7 6 5 4 3 3 3 2 3 5 8 10 11 15 16 18 14 17 15 18 16 15 16 8 10 6 18
30 27 25 25 25 24 22 26 23 16 17 10 9 5 4 4 3 3 3 2 2 4 4 5 7 7 8 10 12 15 18 20 20 20 21 24 24 23 21 18 10 10 11
Wind_Direction
119 126 126 123 119 123 115 110 106 106 105 100 86 67 65 60 52 48 42 34 29 25 27 25 19 12 9 1 342 340 352 1 9 32 38 45 53 50 38 26 21 48 55
121 126 128 123 121 125 116 116 112 111 109 105 94 85 79 71 57 50 35 27 22 21 14 12 11 25 65 157 124 107 101 166 109 79 93 74 83 73 40 1 308 38 42
123 125 126 126 125 125 119 117 114 113 115 108 100 110 115 110 84 48 51 50 56 46 118 159 135 138 139 146 155 149 141 151 165 162 146 139 98 107 71 13 10 25 30
123 127 126 129 127 124 122 117 116 115 117 110 110 116 120 112 103 90 101 102 114 116 109 112 126 134 145 145 161 173 180 180 173 161 153 125 79 139 103 60 26 31 37
124 130 124 129 126 122 120 118 119 119 118 118 118 125 128 124 125 118 118 119 110 103 97 92 128 164 150 149 166 169 169 172 177 177 174 156 108 123 119 89 69 53 51
129 122 127 132 130 125 122 122 120 123 125 127 129 132 133 132 127 133 131 127 124 115 114 108 101 122 163 163 143 151 153 157 176 169 164 144 110 110 115 100 89 79 66
126 117 127 134 136 131 128 125 121 122 131 138 141 144 146 144 142 140 141 143 127 113 115 140 114 182 201 202 189 164 151 154 176 189 171 112 105 114 116 109 119 118 116
112 119 124 127 131 129 126 125 126 132 138 144 151 155 157 151 153 142 161 168 146 126 112 212 213 268 247 226 204 199 192 175 181 210 192 130 120 116 116 108 119 119 121
114 114 122 122 127 126 128 131 136 143 152 155 157 161 163 162 163 171 177 169 154 108 155 178 175 216 228 213 215 186 148 162 160 183 157 85 97 109 103 101 113 115 121
113 116 123 123 128 132 132 136 140 147 154 157 160 166 170 173 177 175 164 167 138 160 164 166 175 205 243 242 216 204 175 168 171 169 159 95 90 100 99 109 113 120 127
112 118 128 129 133 135 133 140 142 149 158 165 169 173 175 183 183 172 169 174 146 151 164 159 164 216 245 160 164 161 177 160 131 147 162 126 122 119 107 120 126 117 130
117 121 131 134 137 141 141 133 150 157 165 168 169 166 168 184 159 151 123 144 141 145 157 149 129 132 191 170 120 158 146 151 152 149 132 148 148 136 121 127 132 132 128
124 123 131 141 138 141 144 129 151 156 163 162 167 167 171 187 225 180 169 159 152 161 155 157 120 127 161 176 162 160 139 161 111 156 128 127 137 139 128 133 150 156 141
135 129 134 137 135 139 139 130 145 156 152 157 153 156 184 197 173 173 181 203 147 132 152 169 146 124 141 168 300 211 164 110 89 21 152 121 135 126 132 136 150 163 165
142 138 137 130 136 143 154 146 144 162 145 162 146 144 151 164 185 195 212 217 207 199 172 136 108 129 156 159 78 124 154 72 137 105 121 148 127 125 127 134 148 167 172
144 139 131 118 132 136 147 148 182 161 156 185 167 142 134 175 187 189 182 158 166 171 181 182 159 156 157 179 127 127 135 117 115 125 123 129 123 134 131 133 146 160 166
143 141 142 129 139 157 146 158 167 191 170 155 178 126 129 134 162 168 188 188 189 164 156 164 159 154 157 173 163 140 128 141 115 124 150 115 119 126 119 120 136 146 157
142 144 144 148 139 158 153 154 165 182 188 165 173 160 142 136 166 151 172 178 169 147 168 169 158 161 156 190 195 197 156 119 134 117 151 104 122 109 111 119 125 129 142
141 143 144 147 140 147 155 152 169 172 182 193 177 169 134 137 152 161 182 188 161 153 176 178 187 156 200 199 185 147 114 107 138 176 82 59 71 92 80 126 128 118 124
141 145 158 152 152 146 158 172 172 183 179 175 187 179 132 138 146 150 171 186 182 188 194 23 71 194 182 179 163 43 241 210 352 307 278 122 138 94 84 48 89 97 123
149 153 166 161 169 156 164 173 186 180 183 185 179 176 165 146 142 146 168 186 148 153 170 111 154 186 160 198 231 323 258 13 42 42 4 215 309 103 111 78 64 81 105
158 161 170 178 173 170 175 176 184 192 188 179 168 166 155 154 156 153 139 176 192 181 50 76 63 86 144 161 46 30 26 23 33 29 19 15 18 215 21 96 80 93 42
162 164 168 177 172 175 177 181 184 183 187 177 175 167 149 157 159 163 166 138 155 61 113 83 79 74 47 46 33 18 11 11 1 13 4 359 1 13 1 242 1 30 49
162 162 162 168 172 167 179 173 174 169 162 175 152 149 138 143 141 151 154 147 140 110 96 60 35 20 23 10 13 7 0 351 354 355 3 358 348 329 285 308 333 333 261
163 157 160 160 166 164 169 179 161 157 164 144 144 138 139 118 133 128 134 133 110 65 38 25 5 354 1 1 355 352 349 351 347 341 318 342 339 340 337 329 333 310 214
162 160 158 159 163 162 161 171 171 157 163 143 143 106 77 69 88 136 136 116 38 15 11 2 356 353 347 342 342 341 341 343 342 337 331 332 331 332 332 336 317 294 253